Retour au catalogue

STARLINK-35492

ActifCommunicationsVLEO
NORAD 65926·PAYLOAD·🇺🇸 United States

Lancé Oct 8, 2025 depuis Vandenberg Space Force Base

Loading…

Prochains Passages (prochaines 24 heures)

TLE

FraisSource: CelesTrak SupGP

Époque: Sep 15, 2026, 03:06 UTC

1 65926C 25225S   26258.12965278  .00069120  00000+0  20413-2 0  2584
2 65926  53.1595   2.5926 0001093  83.8895  26.8599 15.34369952    13

Suivez STARLINK-35492 en temps réel avec AllMySat

Download on the App Store